Probability
0 0 0 0 0 0 0 0 0 0 0 0 0 0 0 0 0 0 0 0 0 0 0 0 0 0 0 0 0 0 0 0 0 0 0 0 0 0 0 0 0 0 0
0 0 0 0 0 0 0 0 0 0 0 0 0 0 0 0 0 0 0 0 0 0 0 0 0 0 0 0 0 0 0 0 0 0 0 0 0 0 0 0 0 0 0
0 0 0 0 0 0 0 0 0 0 0 0 0 0 0 0 0 0 0 0 0 0 0 0 0 0 0 0 0 0 0 0 0 0 0 0 0 0 0 0 0 0 0
0 0 0 0 0 0 0 0 0 0 0 0 0 0 0 0 0 0 0 0 0 0 0 0 0 0 0 0 0 0 0 0 0 0 0 0 0 0 0 0 0 0 0
0 0 0 0 0 0 0 0 0 0 0 0 0 0 0 0 0 0 0 0 0 0 0 0 0 0 0 0 0 0 0 0 0 0 0 0 0 0 0 0 0 0 0
0 0 0 0 0 0 0 0 0 0 0 0 0 0 0 0 0 0 0 0 0 0 0 0 0 0 0 0 0 0 0 0 0 0 0 0 0 0 0 0 0 0 0
0 0 0 0 0 0 0 0 0 0 0 0 0 0 0 0 0 0 0 0 0 0 0 0 0 0 0 0 0 0 0 0 0 0 0 0 0 0 0 0 0 0 0
0 0 0 0 0 0 0 0 0 0 0 0 0 0 0 0 0 0 0 0 0 0 0 0 0 0 0 0 0 0 0 0 0 0 0 0 0 0 0 0 0 0 0
0 0 0 0 0 0 0 0 0 0 0 0 0 0 0 0 0 0 0 0 0 0 0 0 0 0 0 0 0 0 0 0 0 0 0 0 0 0 0 0 0 0 0
0 0 0 0 0 0 0 0 0 0 0 0 0 0 0 0 0 0 0 0 0 0 0 0 0 0 0 0 0 0 0 0 0 0 0 0 0 0 0 0 0 0 0
0 0 0 0 0 0 0 0 0 0 0 0 0 0 0 0 0 0 0 0 0 0 0 0 0 0 0 0 0 0 0 0 0 0 0 0 0 0 0 0 0 0 0
0 0 0 0 0 0 0 0 0 0 0 0 0 0 0 0 0 0 0 0 0 0 0 0 0 0 0 0 0 0 0 0 0 0 0 0 0 0 0 0 0 0 0
0 0 0 0 0 0 0 0 0 0 0 0 0 0 0 0 0 0 0 0 0 0 0 0 0 0 0 0 0 0 0 0 0 0 0 0 0 0 0 0 0 0 0
0 0 0 0 0 0 0 0 0 0 0 0 0 0 0 0 0 0 0 0 0 0 0 0 0 0 0 0 0 0 0 0 0 0 0 0 0 0 0 0 0 0 0
0 0 0 0 0 0 0 0 0 0 0 0 0 0 0 0 0 0 0 0 0 0 0 0 0 0 0 0 0 0 0 0 0 0 0 0 0 0 0 0 0 0 0
0 0 0 0 0 0 0 0 0 0 0 0 0 0 0 0 0 0 0 0 0 0 0 0 0 0 0 0 0 0 0 0 0 0 0 0 0 0 0 0 0 0 0
0 0 0 0 0 0 0 0 0 0 0 0 0 0 0 0 0 0 0 0 0 0 0 0 0 0 0 0 0 0 0 0 0 0 0 0 0 0 0 0 0 0 0
0 0 0 0 0 0 0 0 0 0 0 0 0 0 0 0 0 0 0 0 0 0 0 0 0 0 0 0 0 0 0 0 0 0 0 0 0 0 0 0 0 0 0
0 0 0 0 0 0 0 0 0 0 0 0 0 0 0 0 0 0 0 0 0 0 0 0 0 0 0 0 0 0 0 0 0 0 0 0 0 0 0 0 0 0 0
0 0 0 0 0 0 0 0 0 0 0 0 0 0 0 0 0 0 0 0 0 0 0 0 0 0 0 0 0 0 0 0 0 0 0 0 0 0 0 0 0 0 0
0 0 0 0 0 0 0 0 0 0 0 0 0 0 0 0 0 0 0 0 0 0 0 0 0 0 0 0 0 0 0 0 0 0 0 0 0 0 0 0 0 0 0
0 0 0 0 0 0 0 0 0 0 0 0 0 0 0 0 0 0 0 0 0 0 0 0 0 0 0 0 0 0 0 0 0 0 0 0 0 0 0 0 0 0 0
0 0 0 0 0 0 0 0 0 0 0 0 0 0 0 0 0 0 0 0 0 0 0 0 0 0 0 0 0 0 0 0 0 0 0 0 0 0 0 0 0 0 0
0 0 0 0 0 0 0 0 0 0 0 0 0 0 0 0 0 0 0 0 0 0 0 0 0 0 0 0 0 0 0 0 0 0 0 0 0 0 0 0 0 0 0
0 0 0 0 0 0 0 0 0 0 0 0 0 0 0 0 0 0 0 0 0 0 0 0 0 0 0 0 0 0 0 0 0 0 0 0 0 0 0 0 0 0 0
0 0 0 0 0 0 0 0 0 0 0 0 0 0 0 0 0 0 0 0 0 0 0 0 0 0 0 0 0 0 0 0 0 0 0 0 0 0 0 0 0 0 0
Height
5801 5801 5801 5801 5800 5800 5799 5798 5797 5795 5794 5792 5790 5788 5786 5784 5781 5779 5778 5775 5773 5771 5769 5767 5765 5763 5761 5759 5758 5756 5755 5753 5752 5751 5750 5749 5748 5748 5747 5747 5747 5747 5747
5795 5795 5795 5795 5794 5794 5793 5792 5791 5789 5788 5786 5784 5782 5779 5777 5775 5772 5770 5768 5765 5763 5761 5758 5756 5754 5752 5750 5748 5747 5745 5743 5742 5740 5739 5738 5737 5737 5736 5736 5736 5736 5736
5789 5789 5789 5789 5788 5787 5787 5785 5784 5783 5781 5779 5777 5775 5772 5770 5768 5765 5762 5759 5757 5755 5752 5750 5747 5745 5743 5741 5739 5737 5735 5733 5731 5730 5728 5726 5725 5725 5724 5724 5723 5723 5723
5783 5783 5783 5783 5782 5781 5780 5779 5778 5776 5774 5772 5770 5768 5765 5763 5760 5757 5754 5751 5748 5746 5743 5740 5738 5736 5733 5731 5728 5726 5724 5722 5720 5718 5716 5714 5713 5711 5711 5710 5709 5709 5709
5777 5777 5776 5776 5775 5774 5773 5772 5770 5769 5766 5764 5762 5760 5757 5754 5752 5749 5745 5742 5739 5736 5733 5730 5728 5725 5723 5720 5717 5714 5711 5709 5707 5704 5702 5700 5698 5697 5695 5694 5694 5693 5693
5770 5770 5770 5769 5768 5768 5766 5765 5763 5761 5759 5756 5754 5751 5748 5745 5742 5739 5736 5732 5729 5725 5722 5719 5716 5713 5710 5707 5704 5701 5697 5694 5691 5689 5686 5684 5682 5680 5679 5677 5676 5676 5675
5763 5763 5762 5762 5761 5760 5759 5757 5756 5754 5751 5748 5745 5742 5739 5736 5732 5729 5725 5722 5718 5714 5710 5706 5703 5699 5696 5693 5689 5685 5682 5678 5675 5672 5669 5666 5664 5662 5660 5659 5658 5657 5656
5755 5755 5755 5754 5753 5752 5751 5749 5748 5745 5743 5740 5737 5733 5730 5727 5723 5718 5714 5710 5706 5702 5697 5693 5688 5684 5681 5677 5673 5669 5665 5661 5657 5654 5650 5647 5644 5642 5640 5638 5637 5636 5635
5748 5747 5747 5746 5745 5744 5743 5741 5739 5736 5734 5731 5727 5724 5721 5717 5714 5709 5703 5697 5692 5688 5683 5678 5673 5668 5663 5659 5656 5652 5647 5643 5638 5634 5630 5627 5623 5621 5618 5616 5614 5613 5612
5740 5740 5739 5738 5737 5736 5734 5732 5729 5727 5724 5721 5717 5713 5710 5705 5702 5700 5696 5689 5683 5676 5671 5665 5658 5653 5647 5642 5637 5633 5628 5623 5618 5614 5609 5605 5601 5597 5594 5591 5589 5587 5585
5733 5732 5731 5730 5729 5727 5725 5723 5720 5717 5713 5710 5706 5702 5698 5693 5688 5684 5682 5677 5671 5665 5659 5652 5644 5637 5630 5625 5620 5614 5609 5603 5598 5593 5587 5582 5577 5572 5568 5564 5560 5557 5555
5725 5724 5723 5721 5720 5718 5715 5713 5710 5706 5703 5699 5694 5690 5685 5681 5675 5670 5665 5661 5656 5650 5644 5637 5629 5621 5613 5606 5600 5594 5588 5582 5576 5570 5563 5557 5550 5544 5538 5533 5528 5524 5520
5717 5716 5715 5713 5711 5708 5706 5703 5699 5696 5692 5687 5683 5678 5672 5667 5661 5655 5649 5644 5638 5633 5626 5619 5611 5603 5595 5587 5580 5573 5566 5559 5551 5542 5534 5526 5518 5510 5503 5496 5490 5484 5479
5709 5708 5706 5704 5701 5699 5696 5692 5689 5685 5680 5676 5670 5665 5659 5653 5647 5640 5633 5627 5621 5616 5607 5598 5589 5580 5571 5563 5556 5547 5540 5531 5521 5511 5500 5490 5479 5470 5461 5453 5446 5440 5435
5700 5699 5697 5695 5692 5689 5685 5682 5678 5673 5669 5663 5658 5652 5645 5639 5632 5624 5617 5609 5601 5595 5590 5580 5568 5558 5547 5537 5527 5517 5507 5497 5485 5473 5461 5449 5439 5429 5421 5413 5406 5400 5395
5692 5690 5688 5685 5682 5679 5675 5671 5667 5662 5656 5651 5645 5638 5631 5624 5616 5608 5600 5592 5582 5574 5568 5560 5547 5535 5523 5511 5498 5485 5474 5461 5448 5434 5422 5412 5404 5396 5389 5383 5377 5372 5366
5683 5681 5679 5676 5672 5669 5665 5660 5655 5650 5644 5638 5631 5624 5616 5608 5600 5591 5582 5574 5564 5554 5547 5541 5527 5514 5499 5484 5471 5456 5441 5426 5414 5403 5393 5385 5379 5373 5368 5363 5358 5353 5348
5675 5672 5669 5666 5663 5659 5654 5649 5644 5638 5631 5624 5617 5609 5601 5592 5583 5574 5564 5555 5545 5535 5525 5518 5508 5492 5476 5458 5443 5428 5412 5398 5388 5381 5373 5367 5362 5357 5352 5347 5342 5338 5333
5666 5663 5660 5657 5653 5648 5643 5638 5632 5625 5618 5610 5602 5594 5585 5576 5566 5557 5547 5536 5526 5514 5502 5492 5482 5467 5450 5431 5417 5403 5390 5379 5371 5365 5359 5354 5349 5343 5338 5333 5328 5323 5319
5657 5654 5651 5647 5642 5637 5632 5626 5619 5612 5604 5596 5587 5578 5569 5559 5549 5539 5529 5517 5505 5492 5479 5465 5454 5440 5424 5407 5393 5383 5376 5366 5359 5353 5348 5343 5337 5331 5325 5320 5315 5310 5305
5648 5645 5641 5636 5631 5626 5620 5613 5607 5599 5590 5581 5572 5562 5553 5542 5532 5520 5509 5496 5482 5467 5453 5438 5425 5412 5398 5386 5376 5368 5362 5356 5349 5342 5338 5332 5326 5321 5314 5308 5302 5297 5291
5639 5635 5631 5626 5620 5614 5608 5600 5593 5585 5576 5566 5557 5547 5537 5526 5515 5503 5489 5474 5457 5441 5426 5412 5400 5388 5378 5369 5363 5357 5351 5346 5341 5334 5328 5324 5316 5310 5304 5298 5292 5286 5281
5630 5625 5621 5615 5609 5602 5595 5587 5579 5570 5561 5551 5541 5531 5521 5509 5496 5483 5469 5453 5435 5416 5401 5389 5380 5371 5364 5357 5352 5347 5341 5336 5330 5323 5318 5315 5307 5300 5294 5288 5283 5278 5272
5620 5615 5610 5604 5597 5589 5582 5574 5565 5556 5546 5536 5526 5515 5503 5490 5475 5461 5448 5432 5415 5398 5385 5374 5366 5359 5352 5347 5342 5337 5332 5327 5322 5314 5307 5303 5298 5291 5285 5279 5274 5269 5264
5610 5605 5598 5592 5584 5577 5569 5560 5551 5542 5533 5522 5511 5498 5484 5471 5456 5440 5426 5411 5396 5382 5370 5361 5355 5349 5343 5337 5332 5327 5322 5317 5313 5307 5299 5294 5288 5283 5277 5272 5267 5262 5257
5599 5593 5587 5580 5572 5564 5556 5547 5538 5529 5519 5508 5495 5479 5464 5448 5432 5415 5402 5391 5380 5370 5361 5353 5346 5340 5335 5329 5323 5317 5312 5307 5303 5298 5292 5286 5280 5275 5271 5265 5260 5255 5250
Wind_Speed
27 26 25 26 26 26 26 27 28 28 29 28 28 27 28 28 29 30 32 33 34 35 36 37 38 39 40 41 41 42 42 42 42 42 42 42 42 42 42 42 43 43 43
27 26 26 27 27 27 28 29 29 30 30 29 29 29 30 31 32 33 34 35 36 37 38 39 40 40 41 42 42 43 43 43 44 44 45 45 45 46 46 46 47 47 47
28 28 28 28 28 28 29 30 30 30 31 30 31 31 32 33 34 36 37 37 38 39 40 41 42 42 43 44 44 45 46 46 47 48 49 50 50 51 51 51 51 52 52
30 30 29 29 29 29 30 30 31 31 32 32 32 33 34 36 37 38 38 39 41 42 43 44 45 45 46 47 48 49 50 51 52 53 54 55 56 56 56 57 57 57 57
32 31 31 31 30 31 31 32 32 33 33 34 35 36 37 38 39 40 41 43 44 45 46 47 48 48 49 51 52 53 54 55 56 57 58 59 60 61 61 62 62 62 62
34 33 32 32 32 32 33 33 34 35 35 36 37 39 40 42 42 43 45 46 47 48 49 50 51 52 53 55 56 57 58 60 61 61 62 63 64 64 65 65 65 66 66
35 34 34 34 34 34 35 35 36 37 37 38 40 42 43 44 45 47 48 49 50 51 52 54 55 56 57 58 60 61 62 63 64 65 66 67 67 68 68 68 69 69 69
35 36 36 36 36 36 37 38 39 39 39 40 42 44 46 47 48 50 51 52 53 54 56 57 59 60 61 62 63 64 66 67 68 68 69 70 71 71 72 72 73 73 73
37 37 37 37 38 38 39 40 41 42 42 43 45 46 48 49 50 50 53 55 56 57 59 61 63 64 66 67 67 68 69 70 71 72 73 74 74 75 76 77 78 78 79
37 37 38 38 39 40 41 42 43 44 45 46 47 49 50 52 53 52 52 54 57 59 61 63 65 67 68 70 70 71 72 73 74 75 76 77 79 80 81 83 84 85 86
38 38 39 40 41 42 43 44 44 45 47 48 50 51 52 54 56 57 56 56 58 60 62 64 66 68 70 71 72 73 74 75 77 78 80 82 84 86 88 90 92 93 95
38 39 40 41 42 43 44 44 45 46 48 50 52 53 55 57 58 60 61 61 62 63 64 65 66 68 70 72 73 74 76 78 80 82 85 87 90 93 96 98 101 103 105
39 40 41 42 42 43 44 45 46 48 50 52 54 56 58 59 61 63 65 66 66 67 68 68 69 70 72 73 75 78 80 82 86 89 93 96 99 102 105 107 109 111 113
39 40 41 42 43 43 44 45 47 49 52 54 56 58 60 62 64 66 68 69 70 70 71 72 74 75 77 79 81 84 86 90 94 98 102 105 107 109 109 108 108 108 108
39 40 41 42 43 43 44 46 49 51 54 56 58 60 62 64 66 68 69 71 73 74 73 74 77 79 82 85 89 93 96 100 104 106 107 107 104 98 94 91 88 87 87
39 40 41 41 42 43 45 48 51 53 56 58 60 62 64 66 68 70 72 73 74 75 76 77 80 84 88 93 97 102 105 106 106 103 99 92 85 78 72 67 64 63 63
39 40 41 41 42 44 47 50 53 56 58 60 62 64 66 68 70 72 73 74 75 77 79 80 85 89 95 99 103 105 104 100 93 85 78 70 64 59 54 52 50 49 49
39 40 40 42 44 46 49 53 55 57 59 62 64 66 68 70 71 72 74 75 78 81 84 86 89 95 98 101 101 98 91 82 73 65 59 54 51 48 46 45 44 43 44
39 40 41 43 46 49 52 54 57 59 61 63 65 67 69 71 72 73 75 78 81 85 90 93 95 97 98 97 91 81 71 63 56 51 48 46 45 43 42 42 42 42 41
39 40 42 45 48 51 53 56 58 60 63 65 67 69 70 71 73 75 78 82 87 91 95 97 98 96 92 83 74 62 53 48 45 44 43 42 41 42 42 42 42 41 39
39 41 44 47 50 53 55 57 59 62 64 66 68 69 71 73 75 79 84 88 93 96 98 98 95 88 77 65 55 48 42 39 39 41 39 39 40 40 41 41 41 40 39
41 43 46 49 52 54 56 59 61 63 65 67 68 70 72 75 79 84 89 93 96 97 96 92 84 72 59 50 43 39 37 35 34 37 37 37 39 39 39 39 38 37 35
42 45 48 50 53 55 58 60 62 64 66 67 69 72 75 79 84 89 92 95 95 92 87 78 67 55 47 41 37 35 34 33 34 36 36 35 36 36 36 35 32 30 29
44 46 49 52 54 57 59 61 63 64 66 68 72 75 80 85 90 93 93 92 87 80 71 61 53 45 40 38 36 34 33 32 32 36 37 34 34 33 32 31 29 27 27
45 47 50 53 55 58 60 62 63 65 67 70 75 80 85 90 92 93 90 84 75 64 55 48 43 40 38 36 36 35 34 33 31 33 35 33 32 30 29 29 27 26 26
46 49 51 54 56 58 60 62 64 66 69 74 79 85 90 92 92 88 81 70 59 50 44 40 38 37 37 37 37 37 36 35 33 31 31 30 28 26 24 26 26 25 26
Wind_Direction
258 258 260 262 264 268 273 277 281 284 286 287 288 289 290 291 291 291 291 291 291 291 291 290 289 289 288 287 287 285 284 283 281 280 278 276 274 272 270 268 267 265 264
258 258 259 260 263 267 271 276 280 282 285 286 287 289 290 291 292 293 293 292 293 293 293 292 292 291 290 289 287 286 284 283 281 280 278 277 275 274 272 270 268 267 265
258 258 259 261 263 267 271 275 280 283 285 286 287 288 289 291 293 293 293 293 293 293 292 292 291 290 289 287 286 284 283 281 280 278 277 276 275 274 272 271 269 268 266
257 258 259 260 263 267 271 276 281 285 286 286 287 288 289 291 293 293 293 293 293 292 291 290 290 289 287 285 284 283 281 280 278 277 276 275 274 273 272 270 269 268 267
258 257 258 261 263 268 272 277 282 285 287 287 288 289 291 292 293 293 293 293 293 292 291 289 288 287 285 284 283 281 280 279 278 277 276 275 274 273 272 271 270 268 267
257 257 258 261 264 268 273 278 282 285 287 288 289 290 292 292 293 294 293 293 292 291 290 289 288 286 285 284 283 282 281 281 280 279 278 277 275 274 273 272 270 269 267
257 258 259 261 265 269 274 278 282 285 287 288 290 291 292 292 293 293 294 293 292 291 290 289 288 288 287 286 285 284 283 282 281 281 279 278 277 276 274 273 271 269 268
258 258 259 262 266 270 275 278 282 285 287 288 290 291 292 293 294 295 295 294 293 292 291 291 290 290 289 288 287 286 286 285 284 283 281 280 278 277 275 274 272 270 268
259 260 261 264 268 272 276 279 282 285 287 288 290 291 292 292 293 294 295 295 295 294 294 293 293 292 291 290 289 288 287 286 285 284 283 281 280 278 277 275 273 271 269
261 262 263 266 270 273 277 280 283 285 287 289 290 291 292 293 293 293 292 292 292 293 293 293 292 292 291 291 290 289 288 287 286 284 283 282 281 279 278 276 274 273 271
262 263 265 268 271 275 278 281 284 286 288 289 291 293 294 294 295 295 295 293 293 292 292 292 292 292 291 291 290 289 288 287 286 285 283 282 281 280 278 277 275 273 272
263 265 267 270 273 276 279 282 285 287 288 290 292 294 295 296 296 296 296 295 294 294 294 293 293 292 292 291 290 289 288 287 286 285 284 283 281 280 279 277 275 274 272
264 266 269 272 275 277 281 283 286 288 290 292 294 296 297 297 297 297 297 297 297 296 296 295 294 293 292 291 291 290 290 289 288 287 286 285 284 282 280 278 276 274 272
265 268 271 274 277 280 283 285 288 290 292 294 296 297 298 298 298 298 298 298 298 298 298 298 298 297 296 295 294 293 293 292 291 290 289 288 286 284 282 280 277 275 273
267 271 273 276 280 282 285 287 290 292 295 296 298 298 299 299 299 299 300 300 300 300 300 300 300 299 299 299 298 297 297 296 295 294 292 290 288 286 284 282 280 278 275
270 273 276 279 282 284 287 290 292 295 297 298 299 299 300 300 300 301 302 302 302 302 302 302 302 302 302 301 301 300 300 299 297 295 294 292 291 289 288 286 284 281 279
273 276 279 282 284 287 290 292 295 297 298 299 299 300 301 301 302 303 303 303 303 303 304 304 304 303 303 303 302 302 301 300 298 296 295 294 293 292 291 289 287 285 282
276 279 281 284 286 289 292 294 296 298 299 300 301 302 302 303 304 304 304 305 305 305 305 305 305 305 304 304 303 303 301 299 298 297 297 296 296 295 293 292 290 288 286
278 280 283 286 289 292 294 296 298 299 300 301 302 303 304 305 305 305 306 306 306 306 306 306 306 306 305 305 304 302 300 299 298 298 298 298 298 297 296 295 294 292 290
279 282 286 289 291 294 296 297 299 300 302 303 304 305 306 306 306 307 307 307 307 307 307 307 307 307 307 305 304 302 300 298 298 298 300 300 300 300 300 300 299 297 295
281 285 288 291 293 295 297 299 301 302 303 304 305 306 307 307 308 308 308 308 308 308 308 309 309 309 307 305 303 301 300 298 298 298 300 302 301 302 301 302 302 301 298
284 287 290 293 295 297 299 301 302 303 304 306 306 307 308 308 309 309 309 309 309 310 310 310 310 309 308 305 303 302 300 298 298 298 301 302 302 303 302 303 303 301 299
287 290 293 295 297 299 301 302 304 305 306 307 308 308 309 309 310 310 310 310 311 311 311 311 310 309 307 305 304 303 302 302 302 300 302 303 303 304 304 305 305 305 303
290 293 295 297 299 301 303 304 305 307 308 308 309 310 310 311 311 311 311 312 311 311 311 311 311 309 307 305 305 305 305 304 305 304 305 307 306 306 306 308 309 308 306
293 295 297 299 301 303 304 306 307 308 309 310 310 311 311 312 312 312 312 313 313 312 311 310 310 309 309 308 307 308 308 307 308 307 307 309 308 308 309 309 310 310 310
295 297 299 301 303 304 306 307 308 309 310 311 311 312 313 313 314 314 314 314 314 313 311 310 310 310 310 310 310 310 309 309 309 309 308 308 307 307 307 308 310 312 314